This is the latest recevied weather packets stored in our database for station/object NK7E-2. If no packets are shown the sender has not sent any weather packets the latest 10 day(s).
| Time | Temp. | Humidity | Pressure | Rain* | Wind** | Luminosity | Snow |
|---|---|---|---|---|---|---|---|
| 1787902816 | 30.56° C | 35% | 1029.9 hPa | 0 mm | - | - | - |
| 1787902215 | 31.11° C | 34% | 1029.8 hPa | 0 mm | - | - | - |
| 1787901615 | 32.22° C | 26% | 1029.8 hPa | 0 mm | - | - | - |
| 1787901015 | 32.22° C | 26% | 1029.9 hPa | 0 mm | - | - | - |
| 1787900416 | 32.22° C | 27% | 1030 hPa | 0 mm | - | - | - |
| 1787899816 | 31.67° C | 29% | 1029.9 hPa | 0 mm | - | - | - |
| 1787899216 | 31.11° C | 32% | 1029.8 hPa | 0 mm | - | - | - |
| 1787898616 | 30.56° C | 34% | 1029.4 hPa | 0 mm | - | - | - |
| 1787898016 | 30° C | 35% | 1029.6 hPa | 0 mm | - | - | - |
| 1787897416 | 30° C | 38% | 1029.7 hPa | 0 mm | - | - | - |
| 1787896816 | 30° C | 39% | 1029.5 hPa | 0 mm | - | - | - |
| 1787896216 | 30° C | 39% | 1029.9 hPa | 0 mm | - | - | - |
| 1787895616 | 30° C | 38% | 1029.9 hPa | 0 mm | - | - | - |
| 1787895016 | 30° C | 37% | 1029.8 hPa | 0 mm | - | - | - |
| 1787894416 | 30° C | 39% | 1029.8 hPa | 0 mm | - | - | - |
| 1787893816 | 29.44° C | 40% | 1030.1 hPa | 0 mm | - | - | - |
| 1787893216 | 29.44° C | 42% | 1030 hPa | 0 mm | - | - | - |
| 1787892616 | 30° C | 41% | 1029.9 hPa | 0 mm | - | - | - |
| 1787892016 | 33.33° C | 25% | 1029.8 hPa | 0 mm | - | - | - |
| 1787891416 | 32.78° C | 26% | 1029.8 hPa | 0 mm | - | - | - |
| 1787890816 | 32.22° C | 28% | 1029.8 hPa | 0 mm | - | - | - |
| 1787890216 | 31.67° C | 32% | 1029.7 hPa | 0 mm | - | - | - |
| 1787889616 | 31.67° C | 32% | 1029.8 hPa | 0 mm | - | - | - |
| 1787889016 | 32.22° C | 30% | 1029.9 hPa | 0 mm | - | - | - |
| 1787888416 | 32.78° C | 29% | 1029.9 hPa | 0 mm | - | - | - |
* Rain latest hour (hover to see other rain measurements)
** Current wind speed in m/s (hover to see current wind gust speed)